User: anonymous   Login
Location: Seattle
(47.6064°N, 122.3308°W)
Time: 02:17:57
(UTC-08:00)
Language:

COSMOS 2251 DEB - Orbit

View from above orbital plane
View from above orbital plane
View from above satellite
View from above satellite

Ground track
Ground track

The orbit data is extracted from the following two-line orbital elements,

1 34954U 93036AEH 23342.12448864  .00009226  00000-0  18355-2 0  9990
2 34954  73.9926  25.1600 0025539 321.5423  38.3922 14.61987332772895
Epoch (UTC): 08 December 2023 02:59:15
Eccentricity: 0.0025539
inclination: 73.9926°
perigee height: 669 km
apogee height: 705 km
right ascension of ascending node: 25.1600°
argument of perigee: 321.5423°
revolutions per day: 14.61987332
mean anomaly at epoch: 38.3922°
orbit number at epoch: 77289

The dashed part of the orbit path shows where the satellite is in the earth's shadow,  

DLR